10:52
Airports
History
Links
Donate
Help keep this website running!
PayPal
Bitcoin
Information on this page is community maintained and may be outdated or inaccurate and is intended for reference only or PC simulator navigating!
Always use approved charts for navigating.
CFH4
FOX HARBOUR
FOX HARBOUR (CFH4)
Pugwash, Nova Scotia, Canada
(U)
Lat/Lng:45° 52' 12" N / 63° 27' 40" W
45.87 / -63.461112
Elevation:62'ft 19mMSL
ID / ICAO:CFH4
Runways:1
Longest:(15-33) 1,480.6m 4,858ft Asphalt
Distance To
Airport ID:
Airport Radio Frequencies
UNICOM/CTAF: 122.2
Nearby VORs <50NM
Nearby NDBs
Nearby WeatherUpdated 04-27-17 10:43 GMT
Nearby weather at CYYG, CHARLOTTETOWN located 33.3 nautical miles from CFH4
Altimeter: 30.13
Visibility: 6.0 statute miles
Wind: 9 knots (170°)
Temp: 13°c 55°f
Humidity: 93.6%

METAR: CYYG 271043Z 17009KT 6SM BR VCFG FEW002 OVC011 13/12 A3013 RMK SF2SC6 SLP205

(Powered by phpweather)
Runway 15 / 33
Dimensions:1480.6 x 22.9m 4858' x 75'ft
Surface:Asphalt
Runway 15 [A]Runway 33 [B]
Heading:126°TH 306°TH
Lat:
Lng:
45° 52' 26.16"N
63° 28' 7.94"W
45° 51' 57.84"N
63° 27' 12.06"W
Google Map
Nearby Airports
(U) DEBERT 31.1 NM
CCQ3 S 180°
(C) CHARLOTTETOWN 33.3 NM
CYYG (WX) NNE 29°
(U) Summerside 43.3 NM
CYSU NNW 335°
(U) TRENTON 44.3 NM
CYTN ESE 113°
4 STANLEY 57.6 NM
CCW4 SSW 202°
(C) GREATER MONCTON INTL 60.8 NM
CYQM (WX) WNW 285°
(U) Moncton McEwen 65.7 NM
CCG4 WNW 287°
VFR Chart
Flight Planning at SkyVector.com